This demonstration page uses our WeatherBlox Daily Observations layout. Learn more.

40.92945, -100.16068

Hourly Observations for March 1, 2018

Temp ( °F °C ) Dew Point ( °F °C ) Humidity (%) Winds ( mph kmh ) Pressure ( in mb ) Visibility ( mi km ) Precip ( " mm )
12:15 am 00:15 Clear 28 -2.5 23 -4.9 84 84 NW 10 17 30.21 1023 10 16.0934 0 0
12:35 am 00:35 Clear 27 -2.6 23 -5.1 83 83 NW 7 11 30.21 1023 10 16.0934 0 0
12:55 am 00:55 Clear 27 -3 23 -5.2 85 85 WNW 8 13 30.21 1023 10 16.0934 0 0
1:15 am 01:15 Clear 28 -2.5 24 -4.6 86 86 NW 8 13 30.21 1023 10 16.0934 0 0
1:35 am 01:35 Clear 26 -3.2 23 -5.1 87 87 WNW 7 11 30.21 1023 10 16.0934 0 0
1:55 am 01:55 Clear 26 -3.3 23 -5.2 87 87 W 8 13 30.21 1023 10 16.0934 0 0
2:15 am 02:15 Clear 25 -3.7 22 -5.4 88 88 WNW 9 15 30.21 1023 10 16.0934 0 0
2:35 am 02:35 Clear 27 -3 22 -5.4 84 84 WNW 9 15 30.24 1024 10 16.0934 0 0
2:55 am 02:55 Clear 26 -3.4 22 -5.7 84 84 WNW 8 13 30.24 1024 10 16.0934 0 0
3:15 am 03:15 Clear 25 -3.9 21 -6.1 85 85 WNW 6 9 30.24 1024 10 16.0934 0 0
3:35 am 03:35 Clear 26 -3.3 22 -5.5 85 85 WNW 8 13 30.24 1024 10 16.0934 0 0
3:55 am 03:55 Clear 25 -3.8 21 -6 85 85 WNW 7 11 30.24 1024 10 16.0934 0 0
4:15 am 04:15 Clear 25 -4 21 -6.3 84 84 WNW 7 11 30.24 1024 10 16.0934 0 0
4:35 am 04:35 Clear 25 -3.7 21 -6.1 84 84 NW 7 11 30.24 1024 10 16.0934 0 0
4:55 am 04:55 Clear 26 -3.6 21 -6 84 84 NW 7 11 30.24 1024 10 16.0934 0 0
5:15 am 05:15 Clear 24 -4.2 20 -6.5 84 84 WNW 7 11 30.3 1026 10 16.0934 0 0
5:35 am 05:35 Clear 25 -4.1 20 -6.5 84 84 WNW 6 9 30.3 1026 10 16.0934 0 0
5:55 am 05:55 Clear 25 -4.1 21 -6.2 86 86 W 8 13 30.3 1026 10 16.0934 0 0
6:15 am 06:15 Clear 25 -4 20 -6.5 83 83 WNW 9 15 30.27 1025 10 16.0934 0 0
6:35 am 06:35 Clear 25 -3.7 20 -6.5 81 81 WNW 10 17 30.3 1026 10 16.0934 0 0
6:55 am 06:55 Clear 25 -3.7 21 -6.2 83 83 WNW 12 19 30.3 1026 10 16.0934 0 0
7:15 am 07:15 Sunny 25 -4 20 -6.5 83 83 WNW 7 11 30.33 1027 10 16.0934 0 0
7:35 am 07:35 Sunny 24 -4.5 19 -7 83 83 W 6 9 30.36 1028 10 16.0934 0 0
7:55 am 07:55 Sunny 26 -3.4 21 -6.1 82 82 WNW 6 9 30.33 1027 10 16.0934 0 0
8:15 am 08:15 Sunny 28 -2.5 22 -5.4 81 81 WNW 6 9 30.33 1027 10 16.0934 0 0
8:35 am 08:35 Sunny 29 -1.7 23 -5.1 78 78 WNW 6 9 30.33 1027 10 16.0934 0 0
8:55 am 08:55 Sunny 30 -1.1 24 -4.6 77 77 WNW 8 13 30.33 1027 10 16.0934 0 0
9:15 am 09:15 Sunny 31 -0.5 24 -4.7 74 74 WNW 7 11 30.3 1026 10 16.0934 0 0
9:35 am 09:35 Sunny 32 0 24 -4.2 74 74 WNW 5 7 30.33 1027 10 16.0934 0 0
9:55 am 09:55 Sunny 33 0.8 25 -3.8 72 72 W 6 9 30.33 1027 10 16.0934 0 0
10:15 am 10:15 Sunny 35 1.8 24 -4.5 63 63 WNW 3 6 30.33 1027 10 16.0934 0 0
10:35 am 10:35 Sunny 38 3.2 24 -4.6 57 57 WNW 3 6 30.3 1026 10 16.0934 0 0
10:55 am 10:55 Sunny 39 4 21 -6.2 48 48 NW 3 6 30.3 1026 10 16.0934 0 0
11:15 am 11:15 Sunny 41 5 21 -6.3 44 44 W 3 6 30.3 1026 10 16.0934 0 0
11:35 am 11:35 Sunny 42 5.8 20 -6.7 41 41 Calm 30.27 1025 10 16.0934 0 0
11:55 am 11:55 Sunny 44 6.9 15 -9.6 30 30 WSW 3 6 30.27 1025 10 16.0934 0 0
12:15 pm 12:15 Sunny 46 7.6 13 -10.5 27 27 Calm 30.27 1025 10 16.0934 0 0
12:35 pm 12:35 Sunny 46 7.6 15 -9.2 30 30 Calm 30.27 1025 10 16.0934 0 0
12:55 pm 12:55 Sunny 47 8.1 13 -10.6 26 26 SW 6 9 30.27 1025 10 16.0934 0 0
1:15 pm 13:15 Sunny 47 8.6 14 -10 26 26 SSW 8 13 30.27 1025 10 16.0934 0 0
1:35 pm 13:35 Sunny 48 8.9 15 -9.5 26 26 S 6 9 30.21 1023 10 16.0934 0 0
1:55 pm 13:55 Sunny 49 9.3 17 -8.1 29 29 SW 12 19 30.21 1023 10 16.0934 0 0
2:15 pm 14:15 Sunny 48 9.1 16 -9 27 27 S 7 11 30.21 1023 10 16.0934 0 0
2:35 pm 14:35 Sunny 50 9.8 18 -7.9 28 28 S 7 11 30.21 1023 10 16.0934 0 0
2:55 pm 14:55 Sunny 49 9.7 16 -8.8 26 26 SW 3 6 30.21 1023 10 16.0934 0 0
3:15 pm 15:15 Sunny 50 9.9 16 -9.1 25 25 S 7 11 30.18 1022 10 16.0934 0 0
3:35 pm 15:35 Sunny 50 10 16 -9.1 25 25 S 9 15 30.18 1022 10 16.0934 0 0
3:55 pm 15:55 Sunny 50 10.2 16 -9 25 25 S 8 13 30.18 1022 10 16.0934 0 0
4:15 pm 16:15 Sunny 50 10.2 15 -9.3 25 25 S 9 15 30.18 1022 10 16.0934 0 0
4:35 pm 16:35 Sunny 51 10.3 14 -10.2 23 23 S 10 17 30.18 1022 10 16.0934 0 0
4:55 pm 16:55 Sunny 51 10.4 15 -9.4 24 24 SSE 10 17 30.18 1022 10 16.0934 0 0
5:15 pm 17:15 Sunny 50 10 16 -8.7 26 26 SSE 9 15 30.18 1022 10 16.0934 0 0
5:35 pm 17:35 Sunny 49 9.5 18 -8 29 29 SSE 8 13 30.18 1022 10 16.0934 0 0
5:55 pm 17:55 Sunny 38 3.5 25 -4.1 58 58 N 10 17 30 1016 10 16.0934 0 0
6:15 pm 18:15 Sunny 45 7.4 17 -8.2 32 32 SE 8 13 30.21 1023 10 16.0934 0 0
6:35 pm 18:35 Clear 43 6.1 17 -8.4 35 35 SSE 9 15 30.21 1023 10 16.0934 0 0
6:55 pm 18:55 Clear 40 4.2 19 -7.4 43 43 SE 8 13 30.24 1024 10 16.0934 0 0
7:15 pm 19:15 Clear 40 4.5 17 -8.2 40 40 SE 8 13 30.27 1025 10 16.0934 0 0
7:35 pm 19:35 Clear 40 4.3 17 -8.2 40 40 SE 8 13 30.27 1025 10 16.0934 0 0
7:55 pm 19:55 Clear 40 4.2 17 -8.5 39 39 SE 8 13 30.27 1025 10 16.0934 0 0
8:15 pm 20:15 Clear 39 3.8 17 -8.6 40 40 SE 8 13 30.27 1025 10 16.0934 0 0
8:35 pm 20:35 Clear 38 3.1 17 -8.2 44 44 SE 10 17 30.27 1025 10 16.0934 0 0
8:55 pm 20:55 Clear 39 3.7 16 -9 39 39 SE 9 15 30.27 1025 10 16.0934 0 0
9:15 pm 21:15 Clear 37 2.9 16 -8.7 43 43 SE 8 13 30.27 1025 10 16.0934 0 0
9:35 pm 21:35 Clear 37 2.8 17 -8.3 44 44 SE 8 13 30.27 1025 10 16.0934 0 0
9:55 pm 21:55 Clear 38 3.3 17 -8.5 42 42 SE 9 15 30.27 1025 10 16.0934 0 0
10:15 pm 22:15 Clear 38 3.6 16 -8.7 41 41 ESE 9 15 30.27 1025 10 16.0934 0 0
10:35 pm 22:35 Clear 36 2.2 18 -8 47 47 SE 10 17 30.3 1026 10 16.0934 0 0
10:55 pm 22:55 Clear 36 2.3 17 -8.5 45 45 SE 10 17 30.3 1026 10 16.0934 0 0
11:15 pm 23:15 Clear 35 1.7 17 -8.6 47 47 SE 13 20 30.3 1026 10 16.0934 0 0
11:35 pm 23:35 Clear 34 1.3 17 -8.5 48 48 SE 12 19 30.27 1025 10 16.0934 0 0
11:55 pm 23:55 Clear 35 1.5 17 -8.2 49 49 SE 10 17 30.27 1025 10 16.0934 0 0

Powered by AerisWeather